User: anonymous   Login
Location: Estes Par
(40.3770°N, 105.5210°W)
Time: 09:50:08
(UTC-07:00)
Language:

Tiangong 2 - Orbit

View from above orbital plane
View from above orbital plane
View from above satellite
View from above satellite

Ground track
Ground track

The orbit data is extracted from the following two-line orbital elements,

1 41765U 16057A   17352.11468576  .00004618  00000-0  60438-4 0  9992
2 41765  42.7848 341.7661 0002037  61.1300 339.6998 15.59856152 71696
Epoch (UTC): 18 December 2017 02:45:08
Eccentricity: 0.0002037
inclination: 42.7848°
perigee height: 387 km
apogee height: 389 km
right ascension of ascending node: 341.7661°
argument of perigee: 61.1300°
revolutions per day: 15.59856152
mean anomaly at epoch: 339.6998°
orbit number at epoch: 7169

The dashed part of the orbit path shows where the satellite is in the earth's shadow,  

DLR